Header for Extended Forecast Station List Page

Search by: ID | Name | Date | Parm | Value | Avg | % Avg
Sort by: ID | Name | Date | Parm | Value | Avg | % Avg

Enter search or view all records.

Click on id for station plot
#IDNameDateParmValueAvg% Avg
0HWRI1BIG LOST-AT HOWELL RANCH NEAR CHILLY03-04-2024DISCHARGE (KAF)152110138
1MACI1BIG LOST-MACKAY RESERVOIR NEAR MACKAY03-04-2024INFLOW (KAF)13279168
2HALI1BIG WOOD-AT HAILEY03-04-2024DISCHARGE (KAF)202172118
3MAGI1BIG WOOD-MAGIC DAM03-04-2024INFLOW (KAF)223166135
4BITM8BITTERROOT-NEAR MISSOULA03-04-2024DISCHARGE (KAF)815102579
5BONM8BLACKFOOT-NEAR BONNER03-04-2024DISCHARGE (KAF)44767366
6BIGI1BOISE-AT GLENWOOD BRIDGE03-04-2024DISCHARGE (KAF)508235216
7LUCI1BOISE-LUCKY PEAK DAM03-04-2024INFLOW (KAF)1200983122
8PARI1BOISE-NEAR PARMA03-04-2024DISCHARGE (KAF)524257204
9HOTI1BRUNEAU-NEAR HOT SPRINGS03-04-2024DISCHARGE (KAF)293153191
10BULO3BULLY CREEK-BULLY CREEK DAM03-04-2024INFLOW (KAF)274707
11BUDW1BUMPING-BUMPING LAKE DAM03-04-2024INFLOW (KAF)111100111
12CHDW1CHELAN-LAKE CHELAN DAM03-04-2024INFLOW (KAF)59984171
13ABOM8CLARK FORK-ABOVE MISSOULA03-04-2024DISCHARGE (KAF)833118670
14DLGM8CLARK FORK-AT DEER LODGE03-04-2024DISCHARGE (KAF)658082
15SRGM8CLARK FORK-AT ST REGIS03-04-2024DISCHARGE (KAF)2217298374
16BELM8CLARK FORK-BELOW MISSOULA03-04-2024DISCHARGE (KAF)1648225773
17CABI1CLARK FORK-CABINET GORGE DAM03-04-2024INFLOW (KAF)5961826872
18NOXM8CLARK FORK-NOXON RAPIDS DAM03-04-2024INFLOW (KAF)5398742373
19DRMM8CLARK FORK-NR DRUMMOND03-04-2024DISCHARGE (KAF)19522786
20CLUW1CLE ELUM-CLE ELUM LAKE03-04-2024INFLOW (KAF)358336107
21ORFI1CLEARWATER-AT OROFINO03-04-2024DISCHARGE (KAF)3811418591
22SPDI1CLEARWATER-AT SPALDING03-04-2024DISCHARGE (KAF)5158606585
23COEI1COEUR D ALENE-COEUR D ALENE LAKE03-04-2024INFLOW (KAF)2398257993
24CIBW1COLUMBIA-AT INTL BOUNDARY03-04-2024DISCHARGE (KAF)204772605979
25BONO3COLUMBIA-BONNEVILLE DAM03-04-2024INFLOW (KAF)478285791283
26CHJW1COLUMBIA-CHIEF JOSEPH DAM03-04-2024INFLOW (KAF)237642885782
27GCDW1COLUMBIA-GRAND COULEE DAM03-04-2024INFLOW (KAF)250142944785
28JDAO3COLUMBIA-JOHN DAY DAM03-04-2024INFLOW (KAF)461625538483
29MCDW1COLUMBIA-MCNARY DAM03-04-2024INFLOW (KAF)436255365381
30PRWW1COLUMBIA-PRIEST RAPIDS DAM03-04-2024INFLOW (KAF)267493346080
31RRHW1COLUMBIA-ROCKY REACH DAM03-04-2024INFLOW (KAF)257093199380
32TDAO3COLUMBIA-THE DALLES DAM03-04-2024INFLOW (KAF)466195579384
33WANW1COLUMBIA-WANAPUM DAM03-04-2024INFLOW (KAF)267553340780
34WELW1COLUMBIA-WELLS DAM03-04-2024INFLOW (KAF)252513114581
35DEDI1DEADWOOD-NEAR LOWMAN03-04-2024INFLOW (KAF)121108113
36MODO3DESCHUTES-AT MOODY NR BIGGS03-04-2024DISCHARGE (KAF)14501387104
37ARDW1ENTIAT-NEAR ARDENVOIR03-04-2024DISCHARGE (KAF)14916292
38CHEI1FALL RIVER-NEAR CHESTER03-04-2024DISCHARGE (KAF)363311116
39CFMM8FLATHEAD-AT COLUMBIA FALLS03-04-2024DISCHARGE (KAF)2967364581
40KERM8FLATHEAD-SELI’Š KSANKA QLISPE’ DAM03-04-2024INFLOW (KAF)3558450579
41TRYO3GRANDE RONDE-TROY03-04-2024DISCHARGE (KAF)13311319101
42REXI1HENRYS FORK-AT REXBURG03-04-2024DISCHARGE (KAF)834697120
43ANTI1HENRYS FORK-AT ST. ANTHONY03-04-2024DISCHARGE (KAF)657593111
44IPDI1HENRYS FORK-ISLAND PARK DAM03-04-2024INFLOW (KAF)16817099
45HODO3HOOD-NEAR TUCKER BRIDGE03-04-2024DISCHARGE (KAF)298244122
46SERO3JOHN DAY-AT SERVICE CK03-04-2024DISCHARGE (KAF)1079841128
47KADW1KACHESS-KACHESS DAM03-04-2024INFLOW (KAF)9610095
48LAUW1KETTLE-AT LAURIER03-04-2024DISCHARGE (KAF)17651656107
49PITW1KLICKITAT-NEAR PITT03-04-2024DISCHARGE (KAF)566490116
50BFEI1KOOTENAI-AT BONNERS FERRY03-04-2024STAGE (FT)MMM
51LEOI1KOOTENAI-AT LEONIA03-04-2024DISCHARGE (KAF)37883714102
52LYDM8KOOTENAI-LIBBY DAM03-04-2024INFLOW (KAF)3668433985
53LWRI1LITTLE WOOD-LITTLE WOOD DAM03-04-2024INFLOW (KAF)7455136
54BERO3MALHEUR-AGENCY VALLEY DAM03-04-2024INFLOW (KAF)7251140
55WRMO3MALHEUR-WARM SPRINGS DAM03-04-2024INFLOW (KAF)13476177
56MYKO3MCKAY CREEK-NEAR PILOT ROCK03-04-2024DISCHARGE (KAF)3635105
57PATW1METHOW-NEAR PATEROS03-04-2024DISCHARGE (KAF)57374477
58WGCM8MF FLATHEAD-NEAR WEST GLACIER03-04-2024DISCHARGE (KAF)1032128380
59CLFW1NACHES-NEAR CLIFFDEL03-04-2024DISCHARGE (KAF)347347100
60NACW1NACHES-NEAR NACHES03-04-2024DISCHARGE (KAF)51051699
61DWRI1NF CLEARWATER-DWORSHAK DAM03-04-2024INFLOW (KAF)2193247489
62FCFM8NF FLATHEAD-NEAR COLUMBIA FALLS03-04-2024DISCHARGE (KAF)991133274
63MONO3NF JOHN DAY-AT MONUMENT03-04-2024DISCHARGE (KAF)732589124
64CSDI1NF PAYETTE-CASCADE DAM03-04-2024INFLOW (KAF)40245489
65TONW1OKANOGAN-NEAR TONASKET03-04-2024DISCHARGE (KAF)921133969
66OWYO3OWYHEE-OWYHEE DAM03-04-2024INFLOW (KAF)581261223
67EMMI1PAYETTE-NEAR EMMETT03-04-2024DISCHARGE (KAF)1036113292
68ALFW1PEND OREILLE-ALBENI FALLS DAM03-04-2024INFLOW (KAF)7634958480
69HOPI1PEND OREILLE-LAKE PEND OREILLE NR HOPE03-04-2024LAKE ELEVATION (FT)MMM
70PIHI1PORTNEUF-AT POCATELLO03-04-2024DISCHARGE (KAF)16069230
71PRTI1PRIEST-NEAR PRIEST RIVER03-04-2024DISCHARGE (KAF)886754117
72RCCM8ROCK CREEK-NEAR CLINTON03-04-2024DISCHARGE (KAF)15921873
73WHBI1SALMON-AT WHITEBIRD03-04-2024DISCHARGE (KAF)4424489890
74ARAI1SF BOISE-ANDERSON RANCH DAM03-04-2024INFLOW (KAF)488392124
75HHWM8SF FLATHEAD-HUNGRY HORSE DAM03-04-2024INFLOW (KAF)1410168484
76PLDI1SF SNAKE-PALISADES DAM03-04-2024INFLOW (KAF)25202261111
77SIFI1SNAKE-AB EAGLE ROCK NR IDAHO FALLS03-04-2024DISCHARGE (KAF)26331728152
78AFRI1SNAKE-AMERICAN FALLS RESERVOIR03-04-2024INFLOW (KAF)28291749162
79SNAI1SNAKE-AT BLACKFOOT03-04-2024DISCHARGE (KAF)21461127190
80MILI1SNAKE-AT MILNER03-04-2024DISCHARGE (KAF)M54M
81WEII1SNAKE-AT WEISER03-04-2024DISCHARGE (KAF)44583985112
82SWAI1SNAKE-BELOW SWAN FALLS03-04-2024DISCHARGE (KAF)19571854106
83BRNI1SNAKE-BROWNLEE DAM03-04-2024INFLOW (KAF)50324468113
84IHDW1SNAKE-ICE HARBOR DAM03-04-2024INFLOW (KAF)159441873085
85JLKW4SNAKE-JACKSON LAKE AT DAM03-04-2024INFLOW (KAF)704627112
86LGSW1SNAKE-LITTLE GOOSE DAM03-04-2024INFLOW (KAF)158081862185
87LGDW1SNAKE-LOWER GRANITE DAM03-04-2024INFLOW (KAF)158081858985
88LMNW1SNAKE-LOWER MONUMENTAL DAM03-04-2024INFLOW (KAF)159441872685
89ALPW4SNAKE-NEAR ALPINE03-04-2024DISCHARGE (KAF)16091549104
90ANAW1SNAKE-NEAR ANATONE03-04-2024DISCHARGE (KAF)106491195589
91BFTI1SNAKE-NEAR BLACKFOOT03-04-2024DISCHARGE (KAF)21081112190
92HEII1SNAKE-NEAR HEISE03-04-2024DISCHARGE (KAF)26612110126
93JKSW4SNAKE-NEAR JACKSON03-04-2024DISCHARGE (KAF)12671205105
94SHYI1SNAKE-NEAR SHELLEY03-04-2024DISCHARGE (KAF)25081602157
95LLKW1SPOKANE-AT LONGLAKE03-04-2024INFLOW (KAF)2624292590
96SPOW1SPOKANE-AT SPOKANE03-04-2024DISCHARGE (KAF)2322261389
97SJMI1ST JOE-AT ST MARIES03-04-2024STAGE (FT)MMM
98SATI1ST MARIES-NEAR SANTA03-04-2024DISCHARGE (KAF)145133109
99STRM8ST. REGIS-NEAR ST. REGIS03-04-2024DISCHARGE (KAF)23724697
100TNAW1TEANAWAY-BELOW FORKS03-04-2024DISCHARGE (KAF)145132110
101TEAI1TETON-NEAR ST. ANTHONY03-04-2024DISCHARGE (KAF)388304128
102RILW1TIETON-RIMROCK LAKE NEAR RIMROCK03-04-2024INFLOW (KAF)16116796
103PDTO3UMATILLA-AT PENDLETON03-04-2024DISCHARGE (KAF)193173111
104GIBO3UMATILLA-NEAR GIBBON03-04-2024DISCHARGE (KAF)9083108
105UMAO3UMATILLA-NEAR UMATILLA03-04-2024DISCHARGE (KAF)164156105
106TCHW1WALLA WALLA-NEAR TOUCHET03-04-2024DISCHARGE (KAF)182180101
107WSRI1WEISER-NEAR WEISER03-04-2024DISCHARGE (KAF)413405102
108PESW1WENATCHEE-AT PESHASTIN03-04-2024DISCHARGE (KAF)1047119588
109UNDW1WHITE SALMON-NEAR UNDERWOOD03-04-2024DISCHARGE (KAF)352329107
110RIDI1WILLOW CREEK-RIRIE DAM03-04-2024INFLOW (KAF)11539291
111EASW1YAKIMA-AT EASTON03-04-2024DISCHARGE (KAF)879889
112KIOW1YAKIMA-AT KIONA03-04-2024DISCHARGE (KAF)845100584
113UMTW1YAKIMA-AT UMTANUM03-04-2024DISCHARGE (KAF)63767395
114KEDW1YAKIMA-KEECHELUS LAKE03-04-2024INFLOW (KAF)10310895
115PARW1YAKIMA-NEAR PARKER03-04-2024DISCHARGE (KAF)52866679